EAG5530 OBBI-OEJN

Flight info

Callsign EAG5530
Flight time N/A
Altitude 38000
Route BHR B457 NARMI N112 GETOT Q212 KSA G782 VEMEM
Aircraft A35K/H-SDE2E3GHIJ3J4J5LM1ORWXY/LB1D1

Departure

Time 2026-04-30 19:27
Airport Bahrain International Airport (OBBI)

Arrival

Time N/A
Airport King Abdulaziz International Airport (OEJN)
Time Latitude Longitude Altitude Speed Heading
2026-04-30 19:27 26.29366 50.42004 8220 ft 268 kts 274°
2026-04-30 19:27 26.29687 50.37832 10046 ft 272 kts 272°
2026-04-30 19:28 26.29848 50.35685 10632 ft 288 kts 272°
2026-04-30 19:28 26.30217 50.30918 11410 ft 328 kts 275°
2026-04-30 19:29 26.30940 50.25663 12377 ft 354 kts 278°
2026-04-30 19:29 26.31373 50.22936 13101 ft 358 kts 278°
2026-04-30 19:30 26.32234 50.14579 15133 ft 366 kts 269°
2026-04-30 19:30 26.32194 50.08859 16448 ft 372 kts 267°
2026-04-30 19:31 26.32046 50.03053 17757 ft 377 kts 266°
2026-04-30 19:31 26.31968 50.00119 18349 ft 380 kts 266°
2026-04-30 19:31 26.31823 49.94174 19431 ft 387 kts 267°
2026-04-30 19:32 26.31755 49.91159 20031 ft 390 kts 267°
2026-04-30 19:32 26.31688 49.88156 20660 ft 393 kts 267°
2026-04-30 19:32 26.31620 49.85110 21322 ft 395 kts 267°
2026-04-30 19:32 26.31551 49.82038 21915 ft 398 kts 267°
2026-04-30 19:33 26.31481 49.78940 22538 ft 402 kts 267°
2026-04-30 19:33 26.31409 49.75822 23151 ft 405 kts 267°
2026-04-30 19:33 26.31335 49.72662 23739 ft 409 kts 267°
2026-04-30 19:33 26.31260 49.69489 24341 ft 410 kts 267°
2026-04-30 19:34 26.31185 49.66314 24967 ft 411 kts 267°
2026-04-30 19:34 26.31109 49.63117 25598 ft 413 kts 266°
2026-04-30 19:34 26.30953 49.56706 26828 ft 416 kts 266°
2026-04-30 19:35 26.30873 49.53475 27424 ft 418 kts 266°
2026-04-30 19:35 26.30792 49.50229 28006 ft 420 kts 266°
2026-04-30 19:35 26.30709 49.46964 28564 ft 423 kts 266°
2026-04-30 19:35 26.30627 49.43675 29125 ft 425 kts 266°
2026-04-30 19:36 26.30545 49.40375 29669 ft 427 kts 266°
2026-04-30 19:36 26.30459 49.37067 30150 ft 429 kts 265°
2026-04-30 19:36 26.30279 49.30364 30886 ft 435 kts 265°
2026-04-30 19:37 26.30188 49.26981 31236 ft 438 kts 265°
2026-04-30 19:37 26.30096 49.23587 31696 ft 437 kts 265°
2026-04-30 19:37 26.30006 49.20207 32291 ft 434 kts 265°
2026-04-30 19:37 26.29917 49.16905 32842 ft 431 kts 265°
2026-04-30 19:38 26.29826 49.13574 33399 ft 429 kts 264°
2026-04-30 19:38 26.29735 49.10266 33972 ft 425 kts 264°
2026-04-30 19:38 26.29613 49.06982 34362 ft 424 kts 263°
2026-04-30 19:38 26.29388 49.03708 34665 ft 424 kts 262°
2026-04-30 19:39 26.29109 49.00436 34978 ft 424 kts 261°
2026-04-30 19:39 26.28815 48.97163 35291 ft 425 kts 261°
2026-04-30 19:39 26.28528 48.93887 35610 ft 425 kts 261°
2026-04-30 19:39 26.28252 48.90609 35936 ft 425 kts 262°
2026-04-30 19:40 26.27987 48.87334 36227 ft 425 kts 262°
2026-04-30 19:40 26.27728 48.84048 36534 ft 425 kts 262°
2026-04-30 19:40 26.27473 48.80769 36830 ft 425 kts 262°
2026-04-30 19:40 26.27219 48.77486 37129 ft 425 kts 262°
2026-04-30 19:41 26.26965 48.74204 37419 ft 425 kts 262°
2026-04-30 19:41 26.26708 48.70914 37710 ft 425 kts 262°
2026-04-30 19:41 26.26455 48.67675 37928 ft 426 kts 262°
2026-04-30 19:41 26.26195 48.64377 37963 ft 427 kts 262°
2026-04-30 19:42 26.25674 48.57800 37964 ft 427 kts 262°
2026-04-30 19:42 26.24898 48.51266 37971 ft 424 kts 255°
2026-04-30 19:43 26.22900 48.45099 37976 ft 423 kts 246°
2026-04-30 19:44 26.19195 48.36172 37981 ft 423 kts 245°
2026-04-30 19:44 26.16688 48.30255 37982 ft 422 kts 245°
2026-04-30 19:45 26.14197 48.24336 37982 ft 422 kts 245°
2026-04-30 19:45 26.11629 48.18490 37985 ft 424 kts 240°
2026-04-30 19:46 26.08175 48.13148 37987 ft 426 kts 233°
2026-04-30 19:46 26.04425 48.08047 37988 ft 426 kts 233°
2026-04-30 19:47 26.00621 48.02971 37989 ft 427 kts 233°
2026-04-30 19:47 25.96829 47.97898 37988 ft 427 kts 233°
2026-04-30 19:48 25.93043 47.92817 37992 ft 427 kts 233°
2026-04-30 19:48 25.89259 47.87736 37995 ft 427 kts 233°
2026-04-30 19:49 25.85470 47.82655 37996 ft 427 kts 233°
2026-04-30 19:49 25.80064 47.75409 37999 ft 427 kts 233°
2026-04-30 19:50 25.78289 47.73038 38001 ft 427 kts 232°
2026-04-30 19:50 25.75050 47.68711 38001 ft 427 kts 232°
2026-04-30 19:51 25.73791 47.67030 37998 ft 427 kts 232°
2026-04-30 19:51 25.69994 47.61964 38002 ft 427 kts 232°
2026-04-30 19:52 25.66190 47.56887 37999 ft 427 kts 232°
2026-04-30 19:52 25.63870 47.53783 37999 ft 427 kts 232°
2026-04-30 19:53 25.60707 47.49555 38000 ft 426 kts 232°
2026-04-30 19:53 25.58419 47.46508 38005 ft 426 kts 232°
2026-04-30 19:54 25.54620 47.41460 38005 ft 427 kts 232°
2026-04-30 19:54 25.52236 47.38296 38016 ft 427 kts 232°
2026-04-30 19:55 25.48425 47.33242 38015 ft 427 kts 232°
2026-04-30 19:55 25.46278 47.30396 38016 ft 427 kts 232°
2026-04-30 19:56 25.42468 47.25351 38016 ft 427 kts 232°
2026-04-30 19:56 25.38655 47.20307 38017 ft 427 kts 232°
2026-04-30 19:57 25.34842 47.15267 38007 ft 428 kts 232°
2026-04-30 19:57 25.31270 47.10552 38009 ft 429 kts 232°
2026-04-30 19:58 25.30639 47.09719 38007 ft 429 kts 232°
2026-04-30 19:58 25.26805 47.04665 38009 ft 429 kts 232°
2026-04-30 19:59 25.22958 46.99598 38009 ft 429 kts 232°
2026-04-30 20:00 25.17846 46.92872 38010 ft 430 kts 231°
2026-04-30 20:00 25.13362 46.86983 38016 ft 430 kts 231°
2026-04-30 20:01 25.08225 46.80244 38017 ft 431 kts 231°
2026-04-30 20:01 25.04367 46.75190 38020 ft 431 kts 231°
2026-04-30 20:02 24.98597 46.67574 38020 ft 430 kts 234°
2026-04-30 20:03 24.93631 46.59391 37991 ft 430 kts 238°
2026-04-30 20:03 24.90403 46.53825 38018 ft 434 kts 238°
2026-04-30 20:04 24.87144 46.48206 38011 ft 436 kts 238°
2026-04-30 20:05 24.82228 46.39777 38009 ft 436 kts 238°
2026-04-30 20:05 24.77304 46.31357 38000 ft 436 kts 238°
2026-04-30 20:06 24.74036 46.25778 38003 ft 436 kts 238°
2026-04-30 20:06 24.70740 46.20158 38000 ft 437 kts 237°
2026-04-30 20:07 24.67443 46.14543 38004 ft 437 kts 237°
2026-04-30 20:08 24.62479 46.06100 37979 ft 438 kts 237°
2026-04-30 20:08 24.59168 46.00475 37978 ft 438 kts 237°
2026-04-30 20:09 24.55868 45.94875 37989 ft 439 kts 237°
2026-04-30 20:09 24.50874 45.86416 37969 ft 441 kts 237°
2026-04-30 20:10 24.45888 45.77936 37979 ft 440 kts 239°
2026-04-30 20:11 24.41689 45.68936 37967 ft 442 kts 243°
2026-04-30 20:11 24.39017 45.62898 37968 ft 442 kts 243°
2026-04-30 20:12 24.34982 45.53792 37977 ft 442 kts 243°
2026-04-30 20:13 24.32285 45.47739 37957 ft 442 kts 243°
2026-04-30 20:13 24.29586 45.41696 37959 ft 442 kts 243°
2026-04-30 20:14 24.26880 45.35645 37976 ft 441 kts 244°
2026-04-30 20:14 24.24185 45.29624 37976 ft 439 kts 244°
2026-04-30 20:15 24.21495 45.23623 37974 ft 439 kts 243°
2026-04-30 20:15 24.18820 45.17661 37986 ft 439 kts 244°
2026-04-30 20:16 24.16132 45.11680 37977 ft 436 kts 244°
2026-04-30 20:16 24.13449 45.05731 37983 ft 435 kts 244°
2026-04-30 20:17 24.10769 44.99784 37993 ft 435 kts 244°
2026-04-30 20:17 24.08097 44.93865 37986 ft 433 kts 244°
2026-04-30 20:18 24.05432 44.87968 37984 ft 431 kts 244°
2026-04-30 20:18 24.02788 44.82124 37986 ft 431 kts 244°
2026-04-30 20:19 24.00125 44.76248 37988 ft 431 kts 244°
2026-04-30 20:19 23.97454 44.70361 37985 ft 433 kts 244°
2026-04-30 20:20 23.94765 44.64444 37987 ft 435 kts 244°
2026-04-30 20:20 23.92418 44.58363 37991 ft 434 kts 253°
2026-04-30 20:21 23.90917 44.52002 37987 ft 432 kts 255°
2026-04-30 20:21 23.89561 44.45602 37985 ft 432 kts 255°
2026-04-30 20:22 23.88222 44.39205 37980 ft 431 kts 255°
2026-04-30 20:22 23.86867 44.32816 37980 ft 431 kts 255°
2026-04-30 20:23 23.85500 44.26432 37981 ft 431 kts 255°
2026-04-30 20:23 23.84138 44.20094 37979 ft 431 kts 255°
2026-04-30 20:24 23.82768 44.13728 37971 ft 429 kts 255°
2026-04-30 20:24 23.81398 44.07380 37971 ft 429 kts 255°
2026-04-30 20:25 23.79338 43.97853 37971 ft 430 kts 255°
2026-04-30 20:26 23.77280 43.88361 37980 ft 430 kts 255°
2026-04-30 20:26 23.75194 43.78819 37980 ft 430 kts 255°
2026-04-30 20:27 23.72397 43.66125 37981 ft 430 kts 255°
2026-04-30 20:28 23.69603 43.53470 37992 ft 431 kts 255°
2026-04-30 20:30 23.66080 43.37586 37995 ft 430 kts 255°
2026-04-30 20:31 23.61839 43.18572 37986 ft 429 kts 255°
2026-04-30 20:32 23.58294 43.02770 38005 ft 431 kts 255°
2026-04-30 20:33 23.56154 42.93267 38004 ft 430 kts 255°
2026-04-30 20:34 23.54010 42.83774 38005 ft 430 kts 255°
2026-04-30 20:35 23.51867 42.74315 38004 ft 430 kts 255°
2026-04-30 20:35 23.49714 42.64835 38004 ft 429 kts 255°
2026-04-30 20:36 23.48275 42.58516 38007 ft 430 kts 255°
2026-04-30 20:37 23.46121 42.49077 38005 ft 429 kts 255°
2026-04-30 20:37 23.44676 42.42764 38008 ft 429 kts 255°
2026-04-30 20:38 23.43229 42.36453 37992 ft 429 kts 255°
2026-04-30 20:38 23.41778 42.30137 38008 ft 430 kts 255°
2026-04-30 20:39 23.39599 42.20673 38007 ft 430 kts 255°
2026-04-30 20:40 23.37423 42.11249 38010 ft 429 kts 255°
2026-04-30 20:40 23.35962 42.04942 38008 ft 429 kts 255°
2026-04-30 20:41 23.33771 41.95498 38022 ft 429 kts 255°
2026-04-30 20:41 23.32305 41.89201 38016 ft 429 kts 255°
2026-04-30 20:42 23.30838 41.82904 38017 ft 429 kts 255°
2026-04-30 20:43 23.28507 41.73545 38026 ft 429 kts 250°
2026-04-30 20:43 23.25810 41.67760 38031 ft 430 kts 240°
2026-04-30 20:44 23.20991 41.59518 38032 ft 431 kts 239°
2026-04-30 20:45 23.14455 41.48560 38043 ft 432 kts 239°
2026-04-30 20:45 23.11200 41.43070 38045 ft 431 kts 239°
2026-04-30 20:46 23.04720 41.32146 38032 ft 431 kts 239°
2026-04-30 20:47 22.99840 41.23939 38055 ft 431 kts 239°
2026-04-30 20:48 22.94968 41.15758 38055 ft 431 kts 239°
2026-04-30 20:48 22.92243 41.11187 38059 ft 431 kts 239°
2026-04-30 20:49 22.88998 41.05751 38038 ft 431 kts 239°
2026-04-30 20:50 22.84103 40.97562 38056 ft 431 kts 239°
2026-04-30 20:50 22.80830 40.92099 38054 ft 431 kts 239°
2026-04-30 20:51 22.77572 40.86665 38056 ft 431 kts 239°
2026-04-30 20:51 22.72665 40.78492 38039 ft 431 kts 239°
2026-04-30 20:52 22.69388 40.73040 38065 ft 431 kts 239°
2026-04-30 20:53 22.64475 40.64877 38063 ft 431 kts 239°
2026-04-30 20:53 22.61193 40.59432 38071 ft 431 kts 239°
2026-04-30 20:54 22.56294 40.51313 38057 ft 431 kts 239°
2026-04-30 20:55 22.51359 40.43148 38074 ft 432 kts 239°
2026-04-30 20:55 22.48065 40.37704 38083 ft 432 kts 239°
2026-04-30 20:56 22.43164 40.29618 37336 ft 428 kts 239°
2026-04-30 20:56 22.39874 40.24194 35620 ft 435 kts 239°
2026-04-30 20:57 22.38212 40.21457 34821 ft 437 kts 239°
2026-04-30 20:57 22.36536 40.18698 34014 ft 439 kts 239°
2026-04-30 20:57 22.34858 40.15937 33013 ft 443 kts 239°
2026-04-30 20:58 22.31361 40.10281 30608 ft 461 kts 238°
2026-04-30 20:58 22.29565 40.07394 29494 ft 466 kts 238°
2026-04-30 20:58 22.27748 40.04502 28726 ft 464 kts 236°
2026-04-30 20:58 22.25594 40.01920 28049 ft 465 kts 224°
2026-04-30 20:59 22.20222 39.98008 26660 ft 463 kts 215°
2026-04-30 20:59 22.17494 39.96183 26000 ft 460 kts 215°
2026-04-30 21:00 22.12102 39.92550 24656 ft 454 kts 215°
2026-04-30 21:00 22.06812 39.88969 23303 ft 449 kts 215°
2026-04-30 21:01 22.01561 39.85410 21912 ft 440 kts 214°
2026-04-30 21:01 21.98979 39.83661 21245 ft 436 kts 214°
2026-04-30 21:01 21.93892 39.80214 19920 ft 428 kts 214°
2026-04-30 21:02 21.91379 39.78512 19260 ft 425 kts 214°
2026-04-30 21:02 21.88885 39.76823 18605 ft 422 kts 213°
2026-04-30 21:02 21.86441 39.75169 17870 ft 419 kts 213°
2026-04-30 21:02 21.83981 39.73506 17168 ft 414 kts 213°
2026-04-30 21:03 21.81557 39.71868 16490 ft 409 kts 213°
2026-04-30 21:03 21.79156 39.70246 15811 ft 405 kts 213°
2026-04-30 21:03 21.76787 39.68647 15157 ft 400 kts 213°
2026-04-30 21:03 21.74435 39.67059 14489 ft 396 kts 213°
2026-04-30 21:04 21.72107 39.65490 13827 ft 393 kts 213°
2026-04-30 21:04 21.69797 39.63932 13112 ft 389 kts 213°
2026-04-30 21:04 21.65262 39.60876 11778 ft 380 kts 213°
2026-04-30 21:05 21.63033 39.59377 11179 ft 375 kts 212°
2026-04-30 21:05 21.60877 39.57928 11023 ft 357 kts 212°
2026-04-30 21:05 21.58817 39.56552 10888 ft 339 kts 212°
2026-04-30 21:05 21.56886 39.55265 10765 ft 323 kts 212°
2026-04-30 21:06 21.55025 39.54024 10644 ft 307 kts 212°
2026-04-30 21:06 21.53258 39.52839 10515 ft 293 kts 212°
2026-04-30 21:06 21.51573 39.51704 10394 ft 279 kts 212°
2026-04-30 21:06 21.49968 39.50619 10269 ft 270 kts 212°
2026-04-30 21:07 21.48377 39.49544 10018 ft 269 kts 212°
2026-04-30 21:07 21.46766 39.48459 9759 ft 281 kts 212°
2026-04-30 21:07 21.45091 39.47335 9598 ft 285 kts 212°
2026-04-30 21:07 21.43407 39.46209 9092 ft 286 kts 212°
2026-04-30 21:08 21.41711 39.45074 8597 ft 286 kts 211°